Location: Harbor View
(36.2448°N, 86.5797°W)
Time: 09:22:26
(UTC+00:00)

Cosmos 968 Rocket - Pass Details

Date: 29 October 2020
Orbit: 741 x 770 km, 74.0° (Epoch: 04 December)

Event Time Altitude Azimuth Distance (km) Brightness Sun altitude
Rises 23:18:50 0° 353° (N) 3,228 6.7 -5.9°
Reaches altitude 10° 23:21:32 10° 5° (N) 2,294 5.8 -6.5°
Maximum altitude 23:26:00 29° 65° (ENE) 1,376 4.3 -7.3°
Drops below altitude 10° 23:30:25 10° 124° (SE) 2,266 5.5 -8.2°
Sets 23:33:03 0° 136° (SE) 3,181 6.4 -8.7°
